User: anonymous   Login
Location: Lane
(33.5226°N, 79.8788°W)
Time: 15:25:06
(UTC+00:00)
Language:

A-11 Canister half - Orbit

View from above orbital plane
View from above orbital plane
View from above satellite
View from above satellite

Ground track
Ground track

The orbit data is extracted from the following two-line orbital elements,

1    53U 60009E   22276.13628338 -.00000081  00000-0  40611-4 0  9992
2    53  47.2755 195.6528 0100210  35.8553 324.8910 12.17280405770606
Epoch (UTC): 03 October 2022 03:16:14
Eccentricity: 0.0100210
inclination: 47.2755°
perigee height: 1524 km
apogee height: 1684 km
right ascension of ascending node: 195.6528°
argument of perigee: 35.8553°
revolutions per day: 12.17280405
mean anomaly at epoch: 324.8910°
orbit number at epoch: 77060

The dashed part of the orbit path shows where the satellite is in the earth's shadow,  

DLR